{"data":{"norad_id":55915,"intl_designator":"2023-037B","name":"STARLINK-5859","alt_names":[],"object_type":"PAYLOAD","status":"ACTIVE","operator":null,"country":"US","launch_date":"2023-03-17","launch_site_code":"AFWTR","launch_vehicle":null,"mission":null,"orbit_class":"UNKNOWN","rcs_meters":null,"size_class":null,"mass_kg":null,"dimensions":null,"purposes":["comms"],"wikipedia_slug":null,"has_3d_model":false,"image_url":null,"decayed_at":null,"tle_current":{"epoch":"2026-05-25T04:21:10.232352Z","epoch_age_seconds":69854,"freshness":"FRESH","line1":"1 55915U 23037B   26145.18136843  .00001004  00000+0  91956-4 0  9990","line2":"2 55915  69.9989 111.6447 0003353 267.2726  92.8049 14.98322453175621","mean_motion":14.98322453,"eccentricity":0.0003353,"inclination_deg":69.9989,"raan_deg":111.6447,"arg_perigee_deg":267.2726,"mean_anomaly_deg":92.8049,"bstar":9.1956e-5,"rev_number":17562,"period_min":96.107483213428,"perigee_km":569.74882201557,"apogee_km":574.40963701908,"semimajor_km":6950.2162295173,"source":"CELESTRAK","updated_at":"2026-05-25T13:38:17.889020Z"}}}